Location: Fouquenies
(49.4624°N, 2.0492°E)
Time: 07:31:03
(UTC+00:00)

COSMOS 2455 - Pass Details

Date: 03 February 2023
Orbit: 898 x 911 km, 67.1° (Epoch: 22 March)

Event Time Altitude Azimuth Distance (km) Brightness Sun altitude
Rises 18:39:38 0° 256° (WSW) 3,525 7.6 -17.9°
Reaches altitude 10° 18:42:31 10° 268° (W) 2,589 6.5 -18.4°
Maximum altitude 18:47:36 28° 326° (NNW) 1,649 4.5 -19.2°
Drops below altitude 10° 18:52:44 10° 24° (NNE) 2,605 5.0 -20.0°
Enters shadow 18:53:02 - 26° (NNE) 2,698 5.0 -20.1°
